[ hide orbit diagram ]
For accurate long-term ephemerides, please instead use our Horizons system.This orbit viewer was implemented using two-body methods, and hence should not be used for determining accurate long-term trajectories (over several years or decades) or planetary encounter circumstances.
Orbital Elements at Epoch 2459000.5 (2020-May-31.0) TDB
Reference: JPL 13 (heliocentric ecliptic J2000)
Element | Value | Uncertainty (1-sigma) | Units |
e | .1990334268956654 | 4.1937e-08 | |
a | 2.303324218537591 | 1.2161e-08 | au |
q | 1.844885706070274 | 9.4907e-08 | au |
i | 1.372801116964569 | 5.3837e-06 | deg |
node | 216.0773033705243 | 0.00021842 | deg |
peri | 247.4219256264768 | 0.00021904 | deg |
M | 162.1130745079033 | 1.7128e-05 | deg |
tp | 2458425.528154094372 (2018-Nov-03.02815409) | 5.8566e-05 | TDB |
period | 1276.824001730565 3.50 | 1.0112e-05 2.769e-08 | d yr |
n | .2819495870316254 | 2.233e-09 | deg/d |
Q | 2.761762731004909 | 1.4582e-08 | au |
|
| | Orbit Determination Parameters
Additional Information
|
[ hide covariance matrix ]
Orbital Elements at Epoch 2457122.5 (2015-Apr-10.0) TDB
Reference: JPL 13 (heliocentric ecliptic J2000)
Element | Value | Uncertainty (1-sigma) | Units |
e | .1996896114242117 | 4.208e-08 | |
q | 1.842231148207498 | 9.5453e-08 | au |
tp | 2457150.463995554471 (2015-May-07.96399555) | 5.4559e-05 | TDB |
node | 216.1514639961983 | 0.00021848 | deg |
peri | 247.3998166349753 | 0.00021909 | deg |
i | 1.372660702649074 | 5.385e-06 | deg |
|
| | Orbit Determination Parameters
Additional Information
|
Orbit Covariance (6×6)
|
|
e |
q |
tp |
node |
peri |
i |
e |
1.77069174556255E-15 |
-3.996526693885859E-15 |
6.738165451438307E-13 |
-3.595864692904935E-16 |
2.434338310862643E-13 |
-4.495813108741673E-16 |
q |
-3.996526693885859E-15 |
9.111306541843936E-15 |
-1.409176011799762E-12 |
9.662836622233484E-16 |
-5.211864197459824E-13 |
9.716157868479094E-16 |
tp |
6.738165451438307E-13 |
-1.409176011799762E-12 |
2.976733992427111E-9 |
-1.205231410113128E-11 |
9.107405580398171E-10 |
-8.9919509640839E-13 |
node |
-3.595864692904935E-16 |
9.662836622233484E-16 |
-1.205231410113128E-11 |
4.773416509792338E-8 |
-4.77233829734735E-8 |
-3.37830153635771E-10 |
peri |
2.434338310862643E-13 |
-5.211864197459824E-13 |
9.107405580398171E-10 |
-4.77233829734735E-8 |
4.799884210986991E-8 |
3.374604700382602E-10 |
i |
-4.495813108741673E-16 |
9.716157868479094E-16 |
-8.9919509640839E-13 |
-3.37830153635771E-10 |
3.374604700382602E-10 |
2.899871478696652E-11 |
|
Physical Parameter Table
Parameter |
Symbol |
Value |
Units |
Sigma |
Reference |
Notes |
absolute magnitude |
H |
17.4 |
|
n/a |
MPO245436 |
|
|
215828 (2005 AX53) Discovered 2005-Jan-13 by Spacewatch at Kitt Peak |
Reference: 20090607/Numbers.arc | Last Updated: 2009-06-08 |
|
[ hide close-approach data ]
Close-Approach Data ...sorted by Date/Time (TDB)
|
Date/Time (TDB) |
Time Uncertainty (days_HH:MM) |
Body |
Nominal Distance (au) |
Minimum Distance (au) |
Maximum Distance (au) |
V-relative (km/s) |
V-infinity (km/s) |
JD (TDB) |
Time Uncertainty (minutes) |
Semi-major axis (km) |
Semi-minor axis (km) |
range-LOV angle (deg) |
N-sigma |
BP |
Orbit Ref. |
Reference |
Modified |
1954-Jul-08 10:54 |
00:10 |
Psych |
0.0462693146625508 |
0.0462639504162056 |
0.0462746793497979 |
2.35468334012519 |
2.35468322907288 |
2434931.954471202 |
10.3660098552742 |
354.664375930893 |
71.927023208451 |
-42.2375168943794 |
66110.8354576022 |
T |
13 |
CATAB v2.0e-lin.ifort 2019-Jul-14 00:32:23 |
2019-Jul-14 00:34 |
1962-Oct-15 15:48 |
00:01 |
Iris |
0.0428488581414353 |
0.0428475762240001 |
0.0428501402563822 |
4.62331820027303 |
4.62331817125419 |
2437953.158408479 |
1.12984110618749 |
828.807844024758 |
62.9112605783613 |
89.2182936029589 |
101839.083616933 |
T |
13 |
CATAB v2.0e-lin.ifort 2019-Jul-14 00:32:23 |
2019-Jul-14 00:34 |
2020-May-11 00:45 |
< 00:01 |
Iris |
0.0367206903433533 |
0.0367162019460466 |
0.0367251788797978 |
4.18530024696582 |
4.18530020956031 |
2458980.531403584 |
0.529350013757958 |
255.962653713883 |
94.9533125119952 |
31.5566311000378 |
35353.0695228335 |
T |
13 |
CATAB v2.0e-lin.ifort 2019-Jul-14 00:32:23 |
2019-Jul-14 00:34 |
2029-Feb-24 09:31 |
< 00:01 |
Iris |
0.0499520356245354 |
0.0499474112417405 |
0.0499566606662308 |
4.33647076390625 |
4.33647073736732 |
2462191.896323443 |
0.588164237084474 |
375.946164967305 |
62.4368546953702 |
-53.2420979523067 |
96576.9211256975 |
T |
13 |
CATAB v2.0e-lin.ifort 2019-Jul-14 00:32:23 |
2019-Jul-14 00:34 |
2086-Sep-21 04:15 |
< 00:01 |
Iris |
0.0149822872950576 |
0.014973135387099 |
0.0149914592282237 |
4.36917984825702 |
4.3691797604367 |
2483219.677413679 |
0.476494151402555 |
993.966869692285 |
95.5146244605387 |
63.1703192333499 |
20953.900657786 |
T |
13 |
CATAB v2.0e-lin.ifort 2019-Jul-14 00:32:23 |
2019-Jul-14 00:34 |
2153-Feb-02 19:34 |
< 00:01 |
Iris |
0.0299577910800856 |
0.0299236294713996 |
0.0299919548940097 |
4.60206564421421 |
4.60206560251667 |
2507460.315335707 |
0.840352832045725 |
1750.66595189128 |
96.0555114008829 |
-13.4314784661065 |
11114.3230092148 |
T |
13 |
CATAB v2.0e-lin.ifort 2019-Jul-14 00:32:23 |
2019-Jul-14 00:34 |
|
|